SCP
0 0 0 0 0 0 0 0 0 0 0 0 0 0 0 0 0 0 0 0 0 0
0 0 0 0 0 0 0 0 0 0 0 0 0 0 0 0 0 0 0 0 0 0
0 0 0 0 0 0 0 0 0 0 0 0 0 0 0 0 0 0 0 0 0 0
0 0 0 0 0 0 0 0 0 0 0 0 0 0 0 0 0 0 0 0 0 0
0 0 0 0 0 0 0 0 0 0 0 0 0 0 0 0 0 0 0 0 0 0
0 0 0 0 0 0 0 0 0 0 0 0 0 0 0 0 0 0 0 0 0 0
0 0 0 0 0 0 0 0 0 0 0 0 0 0 0 0 0 0 0 0 0 0
0 0 0 0 0 0 0 0 0 0 0 0 0 0 0 0 0 0 0 0 0 0
0 0 0 0 0 0 0 0 0 0 0 0 0 0 0 0 0 0 0 0 0 0
0 0 0 0 0 0 0 0 0 0 0 0 0 0 0 0 0 0 0 0 0 0
0 0 0 0 0 0 0 0 0 0 0 0 0 0 0 0 0 0 0 0 0 0
0 0 0 0 0 0 0 0 0 0 0 0 0 0 0 0 0 0 0 0 0 0
0 0 0 0 0 0 0 0 0 0 0 0 0 0 0 0 0 0 0 0 0 0
0 0 0 0 0 0 0 0 0 0 0 0 0 0 0 0 0 0 0 0 0 0
Wind_Speed_500mb
61 63 63 62 65 69 72 72 70 72 76 81 86 93 96 95 106 97 95 108 96 104
45 48 49 49 54 60 64 65 66 69 71 74 77 78 88 94 96 105 97 105 87 101
26 34 38 43 49 51 53 57 60 62 62 64 67 69 77 86 94 92 99 101 92 103
24 31 37 42 45 48 51 53 55 55 56 59 61 64 69 75 87 95 94 90 99 92
28 38 45 46 46 49 53 54 54 54 55 57 60 61 66 71 79 84 89 92 90 87
42 46 51 55 53 54 55 53 54 55 57 57 58 60 62 63 66 76 78 77 80 90
48 54 57 58 60 60 57 56 55 53 55 57 57 58 60 62 62 67 69 75 78 80
53 58 62 65 67 65 62 58 56 58 59 59 60 61 60 57 57 63 67 68 71 74
61 65 67 63 63 63 61 60 61 64 62 61 62 60 60 57 58 61 63 65 65 68
65 63 57 54 56 61 63 62 63 63 63 61 59 58 58 58 57 61 63 62 61 61
60 59 57 59 60 61 63 63 61 59 58 58 56 54 53 54 57 62 61 59 55 51
59 58 56 55 53 53 56 57 56 55 55 57 52 50 53 56 57 58 56 55 51 47
56 56 55 52 52 53 54 53 55 57 57 55 50 52 52 55 53 51 51 51 47 44
53 53 50 51 50 49 51 52 53 55 51 47 45 47 48 49 47 45 44 43 42 44
Wind_Direction_500mb
254 256 258 259 260 260 259 259 259 257 255 256 258 254 253 252 256 249 260 243 260 253
253 255 257 259 260 261 262 263 262 260 257 256 257 256 251 251 251 254 260 251 258 258
261 260 260 259 259 263 264 264 264 262 260 258 257 257 252 250 251 252 252 255 264 267
289 270 262 261 262 264 267 266 266 265 264 263 261 258 256 249 250 253 255 260 261 261
293 282 271 267 267 265 266 268 269 268 266 264 262 260 258 256 251 250 252 256 258 258
278 286 283 276 269 267 267 268 269 269 269 269 267 265 263 260 253 252 254 257 256 258
289 288 289 281 272 268 267 267 268 271 271 269 267 263 261 260 258 254 256 260 261 260
283 281 281 277 272 268 267 269 271 269 268 266 265 263 261 260 260 261 261 262 264 265
282 282 280 275 270 266 268 270 270 271 271 267 264 261 257 256 259 261 262 263 265 266
287 283 279 276 271 270 271 270 269 268 268 267 264 259 255 254 257 260 261 262 264 266
287 283 280 276 274 274 272 270 268 264 262 261 259 256 255 257 257 259 259 258 257 256
286 282 279 277 275 271 268 267 267 266 262 258 255 252 252 256 257 257 257 257 253 252
293 287 283 280 278 274 272 269 265 263 260 259 255 249 250 254 256 254 253 250 247 241
295 289 285 281 278 275 271 266 263 261 260 256 253 252 252 253 252 250 250 250 249 245
Wind_Speed_850mb
61 63 63 62 65 69 72 72 70 72 76 81 86 93 96 95 106 97 95 108 96 104
45 48 49 49 54 60 64 65 66 69 71 74 77 78 88 94 96 105 97 105 87 101
26 34 38 43 49 51 53 57 60 62 62 64 67 69 77 86 94 92 99 101 92 103
24 31 37 42 45 48 51 53 55 55 56 59 61 64 69 75 87 95 94 90 99 92
28 38 45 46 46 49 53 54 54 54 55 57 60 61 66 71 79 84 89 92 90 87
42 46 51 55 53 54 55 53 54 55 57 57 58 60 62 63 66 76 78 77 80 90
48 54 57 58 60 60 57 56 55 53 55 57 57 58 60 62 62 67 69 75 78 80
53 58 62 65 67 65 62 58 56 58 59 59 60 61 60 57 57 63 67 68 71 74
61 65 67 63 63 63 61 60 61 64 62 61 62 60 60 57 58 61 63 65 65 68
65 63 57 54 56 61 63 62 63 63 63 61 59 58 58 58 57 61 63 62 61 61
60 59 57 59 60 61 63 63 61 59 58 58 56 54 53 54 57 62 61 59 55 51
59 58 56 55 53 53 56 57 56 55 55 57 52 50 53 56 57 58 56 55 51 47
56 56 55 52 52 53 54 53 55 57 57 55 50 52 52 55 53 51 51 51 47 44
53 53 50 51 50 49 51 52 53 55 51 47 45 47 48 49 47 45 44 43 42 44
Wind_Direction_850mb
254 256 258 259 260 260 259 259 259 257 255 256 258 254 253 252 256 249 260 243 260 253
253 255 257 259 260 261 262 263 262 260 257 256 257 256 251 251 251 254 260 251 258 258
261 260 260 259 259 263 264 264 264 262 260 258 257 257 252 250 251 252 252 255 264 267
289 270 262 261 262 264 267 266 266 265 264 263 261 258 256 249 250 253 255 260 261 261
293 282 271 267 267 265 266 268 269 268 266 264 262 260 258 256 251 250 252 256 258 258
278 286 283 276 269 267 267 268 269 269 269 269 267 265 263 260 253 252 254 257 256 258
289 288 289 281 272 268 267 267 268 271 271 269 267 263 261 260 258 254 256 260 261 260
283 281 281 277 272 268 267 269 271 269 268 266 265 263 261 260 260 261 261 262 264 265
282 282 280 275 270 266 268 270 270 271 271 267 264 261 257 256 259 261 262 263 265 266
287 283 279 276 271 270 271 270 269 268 268 267 264 259 255 254 257 260 261 262 264 266
287 283 280 276 274 274 272 270 268 264 262 261 259 256 255 257 257 259 259 258 257 256
286 282 279 277 275 271 268 267 267 266 262 258 255 252 252 256 257 257 257 257 253 252
293 287 283 280 278 274 272 269 265 263 260 259 255 249 250 254 256 254 253 250 247 241
295 289 285 281 278 275 271 266 263 261 260 256 253 252 252 253 252 250 250 250 249 245